When you browse on this site, cookies collect data to enhance your experience and personalize the content and advertising you see.
Visit our Privacy Policy to learn more. By continuing to use the site, you agree to this use of cookies and data.
  • In Portugal
  • List of Countries
  • For 7 days
  • Water Temperature
  • Satellite Maps
  • Weather Map
  • Weather Widgets
  • user-avatar
    Login

    Hourly Weather La Paz

    Today, 24 July, Wednesday

    Time Temperature Precipitation Wind Pressure Humidity
    00:00 +2°C° 0.4 mm 3 mps 471 mmHg 90%
    01:00 +2°C° 0.4 mm 3 mps 471 mmHg 90%
    02:00 +2°C° 0.5 mm 3 mps 471 mmHg 90%
    03:00 +3°C° 0.5 mm 2 mps 470 mmHg 91%
    04:00 +3°C° 0.5 mm 2 mps 470 mmHg 91%
    05:00 +3°C° 0.3 mm 2 mps 471 mmHg 91%
    06:00 +2°C° 0.3 mm 3 mps 471 mmHg 90%
    07:00 +2°C° 0.3 mm 3 mps 471 mmHg 90%
    08:00 +3°C° 0.4 mm 4 mps 472 mmHg 85%
    09:00 +4°C° 0.4 mm 4 mps 472 mmHg 81%
    10:00 +5°C° 0.4 mm 5 mps 473 mmHg 76%
    11:00 +6°C° 0.3 mm 5 mps 473 mmHg 73%
    12:00 +5°C° 0.3 mm 6 mps 472 mmHg 70%
    13:00 +7°C° 0.3 mm 6 mps 472 mmHg 67%
    14:00 +7°C° 0.1 mm 6 mps 472 mmHg 66%
    15:00 +7°C° 0.1 mm 6 mps 472 mmHg 65%
    16:00 +6°C° 0.1 mm 7 mps 472 mmHg 64%
    17:00 +5°C° 0.1 mm 5 mps 472 mmHg 71%
    18:00 +4°C° 0.1 mm 4 mps 472 mmHg 79%
    19:00 +3°C° 0.1 mm 3 mps 471 mmHg 86%
    20:00 +4°C° 0.1 mm 2 mps 472 mmHg 88%
    21:00 +3°C° 0.1 mm 2 mps 472 mmHg 89%
    22:00 +4°C° 0.1 mm 1 mps 472 mmHg 91%
    23:00 +4°C° 0 mm 1 mps 472 mmHg 90%

    Tomorrow, 25 July, Thursday

    Time Temperature Precipitation Wind Pressure Humidity
    00:00 +3°C° 0 mm 1 mps 471 mmHg 89%
    01:00 +3°C° 0 mm 1 mps 471 mmHg 88%
    02:00 +2°C° 0 mm 1 mps 470 mmHg 87%
    03:00 +2°C° 0 mm 1 mps 470 mmHg 87%
    04:00 +1°C° 0 mm 1 mps 470 mmHg 86%
    05:00 +2°C° 0 mm 1 mps 471 mmHg 82%
    06:00 +3°C° 0 mm 1 mps 471 mmHg 78%
    07:00 +3°C° 0 mm 1 mps 472 mmHg 73%
    08:00 +3°C° 0 mm 3 mps 474 mmHg 64%
    09:00 +5°C° 0 mm 4 mps 475 mmHg 55%
    10:00 +7°C° 0 mm 5 mps 476 mmHg 46%
    11:00 +8°C° 0 mm 6 mps 476 mmHg 43%
    12:00 +8°C° 0 mm 6 mps 476 mmHg 39%
    13:00 +9°C° 0 mm 6 mps 476 mmHg 36%
    14:00 +8°C° 0 mm 5 mps 475 mmHg 35%
    15:00 +8°C° 0 mm 5 mps 475 mmHg 34%
    16:00 +8°C° 0 mm 4 mps 474 mmHg 33%
    17:00 +7°C° 0 mm 3 mps 474 mmHg 36%
    18:00 +5°C° 0 mm 2 mps 473 mmHg 39%
    19:00 +3°C° 0 mm 2 mps 472 mmHg 42%
    20:00 +3°C° 0 mm 2 mps 472 mmHg 38%
    21:00 +2°C° 0 mm 2 mps 472 mmHg 34%
    22:00 +2°C° 0 mm 2 mps 472 mmHg 30%
    23:00 +1°C° 0 mm 2 mps 472 mmHg 28%

    Day after tomorrow, 26 July, Friday

    Time Temperature Precipitation Wind Pressure Humidity
    00:00 +2°C° 0 mm 1 mps 471 mmHg 26%
    01:00 +2°C° 0 mm 1 mps 471 mmHg 24%
    02:00 +1°C° 0 mm 1 mps 471 mmHg 24%
    03:00 +1°C° 0 mm 1 mps 470 mmHg 23%
    04:00 +1°C° 0 mm 1 mps 470 mmHg 22%
    05:00 +2°C° 0 mm 1 mps 471 mmHg 24%
    06:00 +3°C° 0 mm 1 mps 473 mmHg 25%
    07:00 +4°C° 0 mm 1 mps 474 mmHg 27%
    08:00 +6°C° 0 mm 1 mps 475 mmHg 24%
    09:00 +8°C° 0 mm 1 mps 476 mmHg 21%
    10:00 +10°C° 0 mm 1 mps 477 mmHg 18%
    11:00 +10°C° 0 mm 1 mps 477 mmHg 20%
    12:00 +10°C° 0 mm 2 mps 477 mmHg 22%
    13:00 +10°C° 0 mm 2 mps 477 mmHg 24%
    14:00 +10°C° 0 mm 2 mps 476 mmHg 30%
    15:00 +9°C° 0 mm 2 mps 475 mmHg 35%
    16:00 +9°C° 0 mm 2 mps 475 mmHg 40%
    17:00 +7°C° 0 mm 2 mps 474 mmHg 48%
    18:00 +5°C° 0 mm 2 mps 473 mmHg 55%
    19:00 +4°C° 0 mm 1 mps 472 mmHg 63%
    20:00 +4°C° 0 mm 1 mps 472 mmHg 65%
    21:00 +2°C° 0 mm 2 mps 472 mmHg 66%
    22:00 +2°C° 0 mm 2 mps 472 mmHg 68%
    23:00 +2°C° 0 mm 1 mps 472 mmHg 70%

    27 July, Saturday

    Time Temperature Precipitation Wind Pressure Humidity
    00:00 +2°C° 0 mm 1 mps 471 mmHg 71%
    01:00 +1°C° 0 mm 1 mps 471 mmHg 73%
    02:00 +1°C° 0 mm 1 mps 471 mmHg 73%
    03:00 +1°C° 0 mm 1 mps 470 mmHg 74%
    04:00 0°C° 0 mm 0 mps 470 mmHg 74%
    05:00 +1°C° 0 mm 0 mps 471 mmHg 69%
    06:00 +2°C° 0 mm 0 mps 472 mmHg 64%
    07:00 +3°C° 0 mm 0 mps 474 mmHg 60%
    08:00 +4°C° 0 mm 0 mps 475 mmHg 54%
    09:00 +7°C° 0 mm 1 mps 476 mmHg 48%
    10:00 +9°C° 0 mm 1 mps 477 mmHg 42%
    11:00 +9°C° 0 mm 1 mps 477 mmHg 43%
    12:00 +9°C° 0 mm 2 mps 476 mmHg 44%
    13:00 +10°C° 0 mm 2 mps 476 mmHg 45%
    14:00 +9°C° 0 mm 2 mps 476 mmHg 47%
    15:00 +9°C° 0 mm 2 mps 475 mmHg 49%
    16:00 +9°C° 0 mm 2 mps 474 mmHg 51%
    17:00 +7°C° 0 mm 2 mps 474 mmHg 59%
    18:00 +5°C° 0 mm 2 mps 473 mmHg 66%
    19:00 +4°C° 0 mm 2 mps 472 mmHg 74%
    20:00 +4°C° 0 mm 1 mps 472 mmHg 75%
    21:00 +4°C° 0 mm 1 mps 472 mmHg 76%
    22:00 +4°C° 0 mm 1 mps 472 mmHg 77%
    23:00 +3°C° 0 mm 1 mps 472 mmHg 79%

    28 July, Sunday

    Time Temperature Precipitation Wind Pressure Humidity
    00:00 +3°C° 0 mm 1 mps 471 mmHg 81%
    01:00 +1°C° 0 mm 0 mps 471 mmHg 82%
    02:00 +1°C° 0 mm 0 mps 471 mmHg 82%
    03:00 +1°C° 0 mm 0 mps 471 mmHg 82%
    04:00 +1°C° 0 mm 0 mps 471 mmHg 82%
    05:00 +2°C° 0 mm 0 mps 472 mmHg 80%
    06:00 +3°C° 0 mm 0 mps 472 mmHg 78%
    07:00 +3°C° 0 mm 0 mps 473 mmHg 76%
    08:00 +5°C° 0 mm 1 mps 474 mmHg 73%
    09:00 +6°C° 0 mm 1 mps 474 mmHg 71%
    10:00 +7°C° 0 mm 1 mps 475 mmHg 69%
    11:00 +8°C° 0.4 mm 1 mps 475 mmHg 67%
    12:00 +9°C° 0.4 mm 1 mps 475 mmHg 65%
    13:00 +8°C° 0.4 mm 2 mps 475 mmHg 63%
    14:00 +8°C° 0.4 mm 2 mps 475 mmHg 62%
    15:00 +8°C° 0.4 mm 3 mps 474 mmHg 60%
    16:00 +8°C° 0.4 mm 3 mps 474 mmHg 59%
    17:00 +7°C° 0.5 mm 3 mps 474 mmHg 65%
    18:00 +6°C° 0.5 mm 2 mps 473 mmHg 71%
    19:00 +4°C° 0.5 mm 2 mps 473 mmHg 77%
    20:00 +4°C° 0 mm 2 mps 473 mmHg 75%
    21:00 +5°C° 0 mm 1 mps 473 mmHg 73%
    22:00 +5°C° 0 mm 1 mps 473 mmHg 71%
    23:00 +5°C° 0 mm 1 mps 473 mmHg 70%

    29 July, Monday

    Time Temperature Precipitation Wind Pressure Humidity
    00:00 +5°C° 0 mm 1 mps 473 mmHg 70%
    01:00 +4°C° 0 mm 1 mps 472 mmHg 69%
    02:00 +4°C° 0 mm 1 mps 472 mmHg 71%
    03:00 +4°C° 0 mm 1 mps 472 mmHg 73%
    04:00 +3°C° 0 mm 1 mps 471 mmHg 74%
    05:00 +4°C° 0 mm 1 mps 472 mmHg 73%
    06:00 +5°C° 0 mm 1 mps 473 mmHg 71%
    07:00 +5°C° 0 mm 1 mps 474 mmHg 69%
    08:00 +6°C° 0 mm 2 mps 475 mmHg 62%
    09:00 +7°C° 0 mm 2 mps 476 mmHg 55%
    10:00 +9°C° 0 mm 2 mps 477 mmHg 48%
    11:00 +10°C° 0.1 mm 2 mps 477 mmHg 44%
    12:00 +11°C° 0.1 mm 3 mps 477 mmHg 39%
    13:00 +12°C° 0.1 mm 3 mps 477 mmHg 35%
    14:00 +11°C° 0.1 mm 3 mps 476 mmHg 36%
    15:00 +11°C° 0.1 mm 3 mps 476 mmHg 37%
    16:00 +10°C° 0.1 mm 3 mps 475 mmHg 38%
    17:00 +9°C° 0 mm 2 mps 474 mmHg 45%
    18:00 +8°C° 0 mm 1 mps 474 mmHg 51%
    19:00 +7°C° 0 mm 1 mps 473 mmHg 58%
    20:00 +6°C° 0 mm 1 mps 473 mmHg 62%
    21:00 +5°C° 0 mm 1 mps 473 mmHg 66%
    22:00 +5°C° 0 mm 1 mps 472 mmHg 70%
    23:00 +4°C° 0 mm 1 mps 472 mmHg 71%
    Show more